This demonstration page uses our WeatherBlox Daily Observations layout. Learn more.

Left ArrowRight Arrow

Hourly Observations for May 7, 2017

Temp ( °F °C ) Dew Point ( °F °C ) Humidity (%) Winds ( mph kmh ) Pressure ( in mb ) Visibility ( mi km ) Precip ( " mm )
12:53 am 00:53 Clear 73 22.8 43 6.1 34 34 SE 15 24 29.70 1006 10 16 0.00 0.00
1:53 am 01:53 Clear 71 21.7 43 6.1 36 36 SE 12 19 29.70 1006 10 16 0.00 0.00
2:53 am 02:53 Clear 68 20 43 6.1 40 40 ESE 13 20 29.69 1005 10 16 0.00 0.00
3:53 am 03:53 Clear 67 19.4 43 6.1 42 42 SE 10 17 29.69 1005 10 16 0.00 0.00
4:53 am 04:53 Clear 64 17.8 42 5.6 45 45 SE 9 15 29.69 1005 10 16 0.00 0.00
5:53 am 05:53 Clear 65 18.3 43 6.1 45 45 ESE 13 20 29.67 1005 10 16 0.00 0.00
6:53 am 06:53 Clear 65 18.3 45 7.2 49 49 ESE 14 22 29.69 1006 10 16 0.00 0.00
7:53 am 07:53 Sunny 66 18.9 46 7.8 49 49 SE 16 26 29.72 1007 10 16 0.00 0.00
8:53 am 08:53 Sunny 71 21.7 48 8.9 44 44 SE 14 22 29.73 1007 10 16 0.00 0.00
9:53 am 09:53 Sunny 73 22.8 48 8.9 41 41 SE 17 28 29.74 1007 10 16 0.00 0.00
10:53 am 10:53 Sunny 79 26.1 48 8.9 34 34 SE 18 30 29.75 1007 10 16 0.00 0.00
11:53 am 11:53 Sunny 83 28.3 48 8.9 30 30 SSE 23 37 29.73 1007 10 16 0.00 0.00
12:53 pm 12:53 Sunny 86 30 47 8.3 26 26 SE 22 35 29.71 1006 10 16 0.00 0.00
1:53 pm 13:53 Sunny 88 31.1 48 8.9 25 25 SSE 22 35 29.69 1006 10 16 0.00 0.00
2:53 pm 14:53 Sunny 90 32.2 47 8.3 23 23 SSE 20 31 29.66 1005 10 16 0.00 0.03
3:53 pm 15:53 Sunny 91 32.8 47 8.3 22 22 SE 25 41 29.63 1003 10 16 0.00 0.00
4:53 pm 16:53 Sunny 91 32.8 47 8.3 22 22 SE 26 43 29.60 1002 10 16 0.00 0.00
5:53 pm 17:53 Sunny 90 32.2 49 9.4 24 24 SE 25 41 29.58 1002 10 16 0.00 0.00
6:53 pm 18:53 Sunny 87 30.6 48 8.9 26 26 SE 28 44 29.59 1002 10 16 0.00 0.00
7:53 pm 19:53 Sunny 84 28.9 47 8.3 27 27 SE 25 41 29.60 1002 10 16 0.00 0.00
8:53 pm 20:53 Clear 80 26.7 47 8.3 31 31 SE 22 35 29.61 1003 10 16 0.00 0.00
9:53 pm 21:53 Clear 77 25 47 8.3 35 35 SE 24 39 29.65 1004 10 16 0.00 0.00
10:53 pm 22:53 Clear 75 23.9 47 8.3 37 37 SE 21 33 29.67 1005 10 16 0.00 0.00
11:53 pm 23:53 Clear 73 22.8 48 8.9 41 41 SE 17 28 29.69 1005 10 16 0.00 0.00

Powered by AerisWeather